#timestamp,LO_Frequency,Hit 
1502143215.2,286047003.6,N
1502143235.0,286047004.1,N
1502143235.9,286047004.1,N
1502143255.8,286047004.1,N
1502143275.6,286046998.4,N
1502143295.4,286047002.7,N
1502143315.3,286047002.0,N
1502143335.1,286047000.6,N
1502143336.0,286047000.6,N
1502143355.8,286046999.2,N
1502143375.6,286046997.2,N
1502143395.5,286046998.9,N
1502143415.3,286046998.1,N
1502143435.1,286046998.4,N
1502143455.9,286047002.4,N
1502143475.7,286047000.5,N
1502143495.5,286046998.5,N
1502143515.4,286046999.4,N
1502143535.2,286046998.1,N
1502143555.0,286047001.0,N
1502143555.9,286047001.0,N
1502143575.8,286046998.2,N
1502143595.6,286047000.2,N
1502143615.4,286047002.5,N
1502143635.3,286047000.7,N
1502143655.1,286047000.2,N
1502143656.0,286047000.2,N
1502143675.8,286046998.6,N
1502143695.7,286047000.3,N
1502143715.5,286047004.6,N
1502143735.3,286047008.8,P
1502143755.2,286047006.3,N
1502143775.9,286047005.0,N
1502143795.7,286047003.4,N
1502143815.6,286047005.2,N
1502143835.4,286047009.2,P
1502143855.2,286047001.8,N
1502143875.1,286047002.8,N
1502143876.0,286047002.8,N
1502143895.8,286047002.8,N
1502143915.6,286047000.8,N
1502143935.5,286047001.2,N
1502143955.3,286046998.7,N
1502143975.1,286046999.5,N
1502143995.9,286046995.1,N
1502144015.7,286046993.5,N
1502144035.5,286046997.2,N
1502144055.3,286046997.7,N
1502144075.2,286046995.1,N
1502144095.0,286046996.2,N
1502144095.9,286046996.2,N
1502144115.7,286046995.2,N
1502144135.6,286046993.7,N
1502144155.4,286046993.0,N
1502144175.2,286046990.8,N
1502144195.1,286046989.3,N
1502144196.0,286046989.3,N
1502144215.8,286046987.4,N
1502144235.6,286046988.3,N
1502144255.5,286046989.1,N
1502144275.3,286046988.6,N
1502144295.1,286046989.2,N
1502144315.9,286046990.0,N
1502144335.7,286046989.5,N
1502144355.5,286046987.4,N
1502144375.3,286046989.7,N
1502144395.2,286046991.6,N
1502144415.0,286046993.1,N
1502144415.9,286046993.1,N
1502144435.7,286046993.9,N
1502144455.6,286046995.2,N
1502144475.4,286046997.4,N
1502144495.2,286046998.4,N
1502144515.1,286046998.8,N
1502144516.0,286046998.8,N
1502144535.8,286046997.1,N
1502144555.6,286047000.0,N
1502144575.5,286046998.8,N
1502144595.3,286047000.5,N
1502144615.1,286046999.1,N
1502144635.9,286046997.4,N
1502144655.7,286046997.6,N
1502144675.5,286046997.4,N
1502144695.4,286046999.0,N
1502144715.2,286046999.4,N
1502144735.0,286046998.0,N
1502144735.9,286046998.0,N
1502144755.8,286046997.8,N
1502144775.6,286046999.3,N
1502144795.4,286046999.5,N
1502144815.2,286046997.1,N
1502144835.1,286046996.6,N
1502144836.0,286046996.6,N
1502144855.8,286046998.8,N
1502144875.6,286046997.2,N
1502144895.5,286046995.1,N
1502144915.3,286046997.1,N
1502144935.1,286046997.9,N
1502144955.9,286046997.0,N
1502144975.7,286046995.0,P
1502144995.5,286047000.8,N
1502145015.4,286046998.8,N
1502145035.2,286046998.5,N
1502145055.0,286046998.8,N
1502145055.9,286046998.8,N
1502145075.8,286046999.1,N
1502145095.6,286046999.7,N
1502145115.4,286046999.9,N
1502145135.3,286047000.5,N
1502145155.1,286046998.8,N
1502145156.0,286046998.8,N
1502145175.8,286046999.3,N
1502145195.7,286046998.0,N
1502145215.5,286046998.2,N
1502145235.3,286047000.6,N
1502145255.2,286046999.4,N
1502145275.9,286046999.0,N
1502145295.7,286046996.5,N
1502145315.5,286046996.8,N
1502145335.4,286046997.7,N
1502145355.2,286046995.5,P
1502145375.1,286046995.1,P
1502145376.0,286046995.1,P
1502145395.8,286046994.9,P
1502145415.6,286046999.8,N
1502145435.5,286047000.1,N
1502145455.3,286047001.8,N
1502145475.1,286047003.7,N
1502145495.9,286047003.9,N
1502145515.7,286047003.5,N
1502145535.5,286047004.1,N
1502145555.3,286047003.0,N
1502145575.2,286047003.0,N
1502145595.0,286047003.5,N
1502145595.9,286047003.5,N
1502145615.7,286047002.9,N
1502145635.6,286047007.0,N
1502145655.4,286047006.3,N
1502145675.2,286047008.6,N
1502145695.1,286047004.5,N
1502145696.0,286047004.5,N
1502145715.8,286047004.8,N
1502145735.6,286047005.6,N
1502145755.5,286047003.1,N
1502145775.3,286047005.6,N
1502145795.1,286047002.2,N
1502145815.9,286047001.8,N
1502145835.7,286047001.6,N
1502145855.5,286047007.2,N
1502145875.3,286047004.9,N
1502145895.2,286047004.7,N
1502145915.0,286047005.2,N
1502145915.9,286047005.2,N
1502145935.7,286047003.1,N
1502145955.6,286047003.1,N
1502145975.4,286047009.2,P
1502145995.3,286047006.0,N
1502146015.1,286047003.8,N
1502146016.0,286047003.8,N
1502146035.8,286047003.2,N
1502146055.6,286047003.0,N
1502146075.5,286047002.2,N
1502146095.3,286047001.9,N
1502146115.1,286047004.2,N
1502146135.9,286047004.2,N
1502146155.7,286047002.2,N
1502146175.5,286047000.1,N
1502146195.4,286047000.6,N
1502146215.2,286046998.5,N
1502146235.0,286047002.3,N
1502146235.9,286047002.3,N
1502146255.8,286047001.6,N
1502146275.6,286047003.0,N
1502146295.4,286047003.6,N
1502146315.3,286047006.0,N
1502146335.1,286047001.8,N
1502146336.0,286047001.8,N
1502146355.8,286047002.7,N
1502146375.7,286047001.3,N
1502146395.5,286047004.4,N
1502146415.3,286047005.2,N
1502146435.1,286047003.1,N
1502146455.9,286047003.8,N
1502146475.7,286047001.3,N
1502146495.5,286047002.9,N
1502146515.4,286047006.0,P
1502146535.2,286046998.3,N
1502146555.0,286047002.3,N
1502146556.0,286047002.3,N
1502146575.8,286047003.0,N
1502146595.6,286047001.8,N
1502146615.4,286047002.0,N
1502146635.3,286047000.6,N
1502146655.1,286047002.7,N
1502146675.8,286047000.0,N
1502146695.7,286047000.1,N
1502146715.5,286047000.1,N
1502146735.3,286047001.2,N
1502146755.2,286046999.3,N
1502146775.9,286046999.9,N
1502146795.9,286047000.0,N
